VSP RF B1

导读

VSP RF B1是由比利时研制的卫星,于2024年3月4日08:00发射,至今已在轨运行两年整。依托比利时在欧洲航空航天领域的技术积淀,该卫星是该国商业航天领域的最新成果之一。作为近年欧洲小型卫星发展的典型代表,它承担着无线电频率试验验证任务,或将为后续同类型卫星的部署提供技术支撑,推动欧洲低轨卫星网络建设。

基本信息
目录编号:
59137
目录名称:
VSP RF B1
国际标识:
2024-043AR
轨道中心:
EARTH
卫星名称:
VSP RF B1
卫星全名:
--
卫星状态:
在轨 (已飞行914 天)
发射日期:
2024-03-04 UTC
国别 :
比利时 (BE)
星等 :
--
轨道信息
数据来源 国际轨道数据
星历时间: 2026-09-04T14:56:42+0800
8小时前
查看轨道信息
半长轴: 6875.976km
偏心率: 0.0001636
轨道倾角: 97.572°
近地点辐角 70.507°
升交点赤经 25.060°
平近点角 289.634°
近地点: 496.714km
远地点: 498.964km
周期: 94.572分钟
每日圈数: 15.226542
详细信息
使用方式:
暂无
2D轨道图
3D轨道图
轨道高度分析图
轨道倾角分析图
轨道综合分析图
查看轨道综合分析图